Bedford County, PA

6:31 PM EST on November 19, 2019 (GMT -0500)
Bedford County

Weather History for KHMZ - October, 2019

Change the Weather History Date:

Wednesday, October 16, 2019

  Actual Average (WUND) Record (WUND)
Temperature  
Mean Temperature 44 °F -  
Max Temperature 52 °F - - (-1)
Min Temperature 37 °F - - (-1)
Degree Days  
Heating Degree Days 21    
Moisture  
Dew Point 41 °F    
Average Humidity 86    
Maximum Humidity 99    
Minimum Humidity 65    
Precipitation  
Precipitation 0.16 in - - ()
Sea Level Pressure  
Sea Level Pressure 29.72 in    
Wind  
Wind Speed 4 mph ()    
Max Wind Speed 23 mph    
Max Gust Speed 37 mph    
Visibility 9.3 miles    
Events Rain    
Averages and records for this station are not official NWS values.
T = Trace of Precipitation, MM = Missing Value Source: Averaged Metar Reports

Daily Weather History Graph

Daily Weather History Graph

Search for Another Location

Airport or City:

Astronomy

Oct. 16, 2019 Rise Set
Actual Time 7:25 AM EDT 6:33 PM EDT
Civil Twilight 6:57 AM EDT 7:00 PM EDT
Nautical Twilight 6:26 AM EDT 7:31 PM EDT
Astronomical Twilight 5:55 AM EDT 8:03 PM EDT
Moon 8:25 PM EDT (10/16) 9:54 AM EDT (10/16)
Length of Visible Light 12h 02m
Length of Day
11h 07m
Waning Gibbous, 93% of the Moon is Illuminated
Oct 16
Waning Gibbous
Oct 21
Last Quarter
Oct 27
New
Nov 4
First Quarter
Nov 12
Full

Hourly Weather History & Observations

Time (EDT) Temp. Windchill Dew Point Humidity Pressure Visibility Wind Dir Wind Speed Gust Speed Precip Events Conditions
12:15 AM 41.9 °F 39.0 °F 40.1 °F 93% 29.94 in 10.0 mi NNW 4.6 mph - N/A   Clear
12:35 AM 41.9 °F - 40.1 °F 93% 29.94 in 10.0 mi Calm Calm - N/A   Clear
12:55 AM 41.0 °F - 39.6 °F 95% 29.93 in 10.0 mi Calm Calm - N/A   Clear
1:15 AM 39.9 °F - 39.0 °F 97% 29.92 in 10.0 mi Calm Calm - N/A   Clear
1:35 AM 39.6 °F - 38.7 °F 97% 29.92 in 10.0 mi Calm Calm - N/A   Clear
1:55 AM 39.0 °F - 38.3 °F 97% 29.92 in 10.0 mi Calm Calm - N/A   Clear
2:35 AM 38.5 °F - 37.8 °F 97% 29.90 in 10.0 mi Calm Calm - N/A   Clear
2:55 AM 38.3 °F - 37.6 °F 97% 29.89 in 10.0 mi Calm Calm - N/A   Clear
3:15 AM 37.4 °F - 36.7 °F 97% 29.88 in 10.0 mi Calm Calm - N/A   Clear
3:35 AM 37.4 °F - 36.9 °F 98% 29.88 in 10.0 mi Calm Calm - N/A   Clear
3:55 AM 37.6 °F - 36.9 °F 97% 29.87 in 10.0 mi Calm Calm - N/A   Clear
4:15 AM 37.2 °F - 36.7 °F 98% 29.86 in 10.0 mi Calm Calm - N/A   Clear
4:35 AM 37.4 °F - 36.5 °F 97% 29.85 in 10.0 mi Calm Calm - N/A   Clear
4:55 AM 37.8 °F - 37.0 °F 97% 29.84 in 10.0 mi Calm Calm - N/A   Clear
5:15 AM 37.4 °F - 36.7 °F 97% 29.83 in 10.0 mi Calm Calm - N/A   Clear
5:35 AM 37.8 °F - 37.4 °F 99% 29.82 in 10.0 mi Calm Calm - N/A   Clear
5:55 AM 37.9 °F - 37.4 °F 98% 29.82 in 10.0 mi Calm Calm - N/A   Mostly Cloudy
6:15 AM 39.6 °F - 39.0 °F 98% 29.81 in 10.0 mi Calm Calm - N/A   Overcast
6:35 AM 40.3 °F - 39.7 °F 98% 29.82 in 10.0 mi Calm Calm - N/A   Overcast
6:55 AM 39.9 °F - 39.2 °F 97% 29.80 in 10.0 mi Calm Calm - N/A   Mostly Cloudy
7:15 AM 40.6 °F - 39.9 °F 97% 29.79 in 10.0 mi Calm Calm - N/A   Scattered Clouds
7:35 AM 41.2 °F - 40.5 °F 97% 29.78 in 10.0 mi Calm Calm - N/A   Scattered Clouds
7:55 AM 41.4 °F - 40.8 °F 98% 29.77 in 10.0 mi Calm Calm - N/A   Clear
8:15 AM 41.4 °F - 40.6 °F 97% 29.75 in 10.0 mi Calm Calm - N/A   Clear
8:35 AM 43.2 °F 39.7 °F 42.4 °F 97% 29.73 in 10.0 mi SE 5.8 mph - N/A   Mostly Cloudy
8:55 AM 47.5 °F - 44.8 °F 90% 29.73 in 10.0 mi Calm Calm - N/A   Mostly Cloudy
9:15 AM 47.8 °F - 46.4 °F 95% 29.73 in 7.0 mi Calm Calm - N/A Rain Light Rain
9:35 AM 49.3 °F - 47.3 °F 93% 29.72 in 10.0 mi Calm Calm - N/A   Overcast
9:55 AM 51.8 °F - 47.3 °F 85% 29.71 in 10.0 mi Calm Calm - N/A   Overcast
10:15 AM 51.4 °F - 46.6 °F 83% 29.71 in 10.0 mi Calm Calm - N/A   Overcast
10:35 AM 50.5 °F - 47.3 °F 89% 29.70 in 10.0 mi Calm Calm - N/A Rain Light Rain
10:55 AM 50.5 °F - 47.7 °F 90% 29.71 in 10.0 mi Calm Calm - N/A Rain Light Rain
11:15 AM 50.0 °F - 47.3 °F 90% 29.71 in 3.0 mi WSW 3.5 mph - 0.02 in   Unknown
11:35 AM 50.2 °F - 48.6 °F 94% 29.68 in 5.0 mi Calm Calm - 0.03 in   Unknown
11:55 AM 50.7 °F - 49.6 °F 96% 29.66 in 5.0 mi Calm Calm - 0.04 in   Unknown
12:15 PM 51.1 °F - 50.4 °F 97% 29.66 in 5.0 mi Calm Calm - 0.02 in Rain Light Rain
12:35 PM 51.1 °F - 50.4 °F 97% 29.65 in 5.0 mi South 4.6 mph - 0.03 in Rain Light Rain
12:55 PM 51.3 °F - 50.0 °F 95% 29.64 in 10.0 mi South 6.9 mph - 0.04 in Rain Light Rain
1:15 PM 51.3 °F - 50.7 °F 98% 29.64 in 7.0 mi Calm Calm - 0.02 in Rain Rain
1:35 PM 51.1 °F - 50.0 °F 96% 29.64 in 7.0 mi South 3.5 mph - 0.04 in Rain Light Rain
1:55 PM 50.9 °F - 50.0 °F 97% 29.64 in 5.0 mi NW 3.5 mph - 0.06 in Rain Light Rain
2:15 PM 50.5 °F - 45.9 °F 84% 29.62 in 5.0 mi NW 4.6 mph - 0.01 in   Unknown
2:35 PM 50.2 °F - 47.1 °F 89% 29.61 in 10.0 mi Calm Calm - 0.02 in   Overcast
3:15 PM 50.9 °F - 45.1 °F 81% 29.62 in 10.0 mi WNW 9.2 mph - N/A   Overcast
3:35 PM 50.7 °F - 45.9 °F 83% 29.62 in 10.0 mi WNW 15.0 mph 19.6 mph N/A   Overcast
3:55 PM 50.5 °F - 43.2 °F 76% 29.62 in 10.0 mi NW 9.2 mph - N/A   Overcast
4:15 PM 51.3 °F - 42.4 °F 72% 29.62 in 10.0 mi NW 13.8 mph 18.4 mph N/A   Overcast
4:35 PM 50.4 °F - 41.5 °F 72% 29.61 in 10.0 mi WNW 11.5 mph - N/A   Overcast
4:55 PM 50.0 °F - 40.6 °F 70% 29.62 in 10.0 mi WNW 12.7 mph 23.0 mph N/A   Overcast
5:15 PM 50.0 °F - 40.8 °F 71% 29.61 in 10.0 mi West 9.2 mph - N/A   Overcast
5:35 PM 50.0 °F - 40.1 °F 69% 29.62 in 10.0 mi WNW 10.4 mph 16.1 mph N/A   Overcast
5:55 PM 49.8 °F - 39.4 °F 67% 29.62 in 10.0 mi NW 13.8 mph 21.9 mph N/A   Overcast
6:15 PM 48.7 °F - 38.5 °F 68% 29.62 in 10.0 mi WNW 18.4 mph 24.2 mph N/A   Overcast
6:35 PM 48.2 °F - 37.6 °F 67% 29.63 in 10.0 mi WNW 16.1 mph 21.9 mph N/A   Overcast
6:55 PM 47.7 °F - 37.4 °F 68% 29.63 in 10.0 mi WNW 12.7 mph 21.9 mph N/A   Overcast
7:35 PM 47.3 °F - 36.1 °F 65% 29.65 in 10.0 mi WNW 12.7 mph 21.9 mph N/A   Overcast
7:55 PM 46.9 °F - 36.1 °F 66% 29.64 in 10.0 mi WNW 12.7 mph 23.0 mph N/A   Overcast
8:15 PM 46.6 °F - 36.3 °F 67% 29.64 in 10.0 mi WNW 10.4 mph 18.4 mph N/A   Overcast
8:35 PM 46.4 °F 40.7 °F 36.3 °F 68% 29.64 in 10.0 mi WNW 12.7 mph 20.7 mph N/A   Overcast
9:15 PM 45.5 °F 37.8 °F 37.4 °F 73% 29.62 in 10.0 mi WNW 19.6 mph 25.3 mph N/A   Overcast
9:35 PM 45.3 °F 38.7 °F 37.2 °F 73% 29.62 in 10.0 mi West 15.0 mph 23.0 mph N/A   Mostly Cloudy
9:55 PM 45.7 °F 37.8 °F 37.4 °F 73% 29.62 in 10.0 mi West 20.7 mph 28.8 mph N/A   Mostly Cloudy
10:15 PM 45.9 °F 37.8 °F 37.2 °F 72% 29.62 in 10.0 mi West 21.9 mph 29.9 mph N/A   Overcast
10:35 PM 46.4 °F 38.3 °F 37.2 °F 70% 29.60 in 10.0 mi West 23.0 mph 31.1 mph N/A   Overcast
10:55 PM 46.2 °F 38.5 °F 37.4 °F 71% 29.60 in 10.0 mi West 20.7 mph 36.8 mph N/A   Overcast
11:15 PM 46.6 °F - 37.8 °F 71% 29.59 in 10.0 mi West 23.0 mph 35.7 mph N/A   Overcast
11:35 PM 46.4 °F 39.0 °F 38.3 °F 73% 29.59 in 10.0 mi West 19.6 mph 25.3 mph N/A   Overcast
11:55 PM 46.8 °F - 38.1 °F 72% 29.58 in 10.0 mi West 23.0 mph 34.5 mph N/A   Overcast